Mobile, AL

4:40 AM CDT on June 25, 2017 (GMT -0500)
Mobile Regional

Weather History for KMOB - August, 2012

Change the Weather History Date:

Tuesday, August 21, 2012

  Actual Average Record
Temperature  
Mean Temperature 79 °F 82 °F  
Max Temperature 87 °F 91 °F 98 °F (1980)
Min Temperature 71 °F 73 °F 62 °F (1956)
Cooling Degree Days 14 17  
Month to date cooling degree days 352 357  
Year to date cooling degree days 2036 1768  
Since 1 June cooling degree days 1330 1323  
Growing Degree Days 29 (Base 50)    
Moisture  
Dew Point 70 °F    
Average Humidity 78    
Maximum Humidity 100    
Minimum Humidity 55    
Precipitation  
Precipitation 0.00 in 0.22 in 2.43 in (1934)
Month to date precipitation 3.27 5.03  
Year to date precipitation 50.02 45.23  
Sea Level Pressure  
Sea Level Pressure 29.97 in    
Wind  
Wind Speed 6 mph (NNE)    
Max Wind Speed 12 mph    
Max Gust Speed 15 mph    
Visibility 7 miles    
Events Fog    
T = Trace of Precipitation, MM = Missing Value Source: NWS Daily Summary

Daily Weather History Graph

Daily Weather History Graph

Search for Another Location

Airport or City:

Trip Planner

Search our weather history database for the weather conditions in past years. The results will help you decide how hot, cold, wet, or windy it might be!

Date:

Astronomy

Aug. 21, 2012 Rise Set
Actual Time 6:23 AM CDT 7:28 PM CDT
Civil Twilight 5:58 AM CDT 7:53 PM CDT
Nautical Twilight 5:28 AM CDT 8:22 PM CDT
Astronomical Twilight 4:58 AM CDT 8:53 PM CDT
Moon 10:29 AM CDT (8/21) 9:54 PM CDT (8/21)
Length of Visible Light 13h 54m
Length of Day
13h 04m
Waxing Crescent, 19% of the Moon is Illuminated
Aug 21
Waxing Crescent
Aug 24
First Quarter
Aug 31
Full
Sep 8
Last Quarter
Sep 15
New

Hourly Weather History & Observations

Time (CDT) Temp. Heat Index Dew Point Humidity Pressure Visibility Wind Dir Wind Speed Gust Speed Precip Events Conditions
12:29 AM 73.4 °F - 71.6 °F 94% 29.93 in 6.0 mi Calm Calm - N/A   Mostly Cloudy
12:48 AM 73.4 °F - 71.6 °F 94% 29.93 in 1.5 mi East 4.6 mph - N/A   Overcast
12:56 AM 73.0 °F - 71.1 °F 93% 29.92 in 0.8 mi ENE 5.8 mph - N/A   Overcast
1:46 AM 71.6 °F - 71.6 °F 100% 29.92 in 0.2 mi North 4.6 mph - N/A Fog Fog
1:56 AM 72.0 °F - 71.1 °F 97% 29.91 in 0.2 mi North 5.8 mph - N/A Fog Fog
2:56 AM 72.0 °F - 71.1 °F 97% 29.92 in 0.2 mi North 4.6 mph - N/A Fog Fog
3:35 AM 71.6 °F - 69.8 °F 94% 29.93 in 0.5 mi ENE 4.6 mph - N/A Fog Fog
3:48 AM 71.6 °F - 69.8 °F 94% 29.93 in 0.2 mi ENE 5.8 mph - N/A Fog Fog
3:56 AM 71.1 °F - 70.0 °F 96% 29.93 in 0.2 mi NE 4.6 mph - N/A Fog Fog
4:33 AM 71.6 °F - 69.8 °F 94% 29.95 in 0.5 mi Calm Calm - N/A Fog Fog
4:56 AM 71.1 °F - 70.0 °F 96% 29.95 in 0.5 mi NNE 3.5 mph - N/A Fog Fog
5:13 AM 71.6 °F - 69.8 °F 94% 29.97 in 1.5 mi NNE 3.5 mph - N/A   Mostly Cloudy
5:53 AM 71.6 °F - 69.8 °F 94% 29.98 in 3.0 mi NE 6.9 mph - N/A   Overcast
5:56 AM 71.1 °F - 69.1 °F 93% 29.97 in 4.0 mi NE 6.9 mph - N/A   Mostly Cloudy
6:21 AM 71.6 °F - 69.8 °F 94% 29.98 in 2.0 mi North 4.6 mph - N/A   Overcast
6:30 AM 71.6 °F - 69.8 °F 94% 29.99 in 4.0 mi North 6.9 mph - N/A   Overcast
6:56 AM 71.1 °F - 70.0 °F 96% 29.97 in 5.0 mi NNE 6.9 mph - N/A   Overcast
7:56 AM 72.0 °F - 69.1 °F 91% 29.96 in 6.0 mi NE 9.2 mph - N/A   Mostly Cloudy
8:06 AM 71.6 °F - 69.8 °F 94% 29.98 in 7.0 mi NNE 8.1 mph - N/A   Mostly Cloudy
8:49 AM 75.2 °F - 68.0 °F 78% 29.99 in 10.0 mi NE 5.8 mph - N/A   Scattered Clouds
8:56 AM 75.0 °F - 68.0 °F 79% 29.99 in 10.0 mi NE 8.1 mph - N/A   Mostly Cloudy
8:59 AM 75.2 °F - 68.0 °F 78% 29.99 in 10.0 mi NE 9.2 mph - N/A   Scattered Clouds
9:39 AM 75.2 °F - 68.0 °F 78% 30.00 in 10.0 mi North 8.1 mph - N/A   Mostly Cloudy
9:56 AM 75.9 °F - 68.0 °F 76% 30.00 in 10.0 mi ENE 5.8 mph - N/A   Mostly Cloudy
10:22 AM 77.0 °F - 69.8 °F 78% 30.01 in 10.0 mi NNE 8.1 mph - N/A   Mostly Cloudy
10:51 AM 78.8 °F - 69.8 °F 74% 30.02 in 10.0 mi NNE 8.1 mph - N/A   Scattered Clouds
10:56 AM 79.0 °F - 69.1 °F 72% 30.01 in 10.0 mi North 9.2 mph - N/A   Mostly Cloudy
11:37 AM 82.4 °F 86.3 °F 69.8 °F 66% 30.01 in 10.0 mi NNE 8.1 mph - N/A   Scattered Clouds
11:56 AM 81.0 °F 84.1 °F 69.1 °F 67% 30.00 in 10.0 mi North 6.9 mph - N/A   Mostly Cloudy
12:18 PM 82.4 °F 86.3 °F 69.8 °F 66% 30.01 in 10.0 mi NNE 9.2 mph - N/A   Scattered Clouds
12:28 PM 80.6 °F 83.9 °F 69.8 °F 70% 30.01 in 10.0 mi North 8.1 mph - N/A   Mostly Cloudy
12:56 PM 84.9 °F 88.8 °F 69.1 °F 59% 29.99 in 10.0 mi NE 8.1 mph - N/A   Scattered Clouds
1:56 PM 86.0 °F 89.4 °F 68.0 °F 55% 29.99 in 10.0 mi Variable 5.8 mph - N/A   Mostly Cloudy
2:56 PM 86.0 °F 89.4 °F 68.0 °F 55% 29.98 in 10.0 mi Variable 3.5 mph - N/A   Mostly Cloudy
3:56 PM 86.0 °F 89.4 °F 68.0 °F 55% 29.97 in 10.0 mi North 3.5 mph - N/A   Mostly Cloudy
4:56 PM 84.9 °F 88.2 °F 68.0 °F 57% 29.96 in 10.0 mi North 6.9 mph - N/A   Mostly Cloudy
5:56 PM 84.0 °F 87.8 °F 69.1 °F 61% 29.96 in 10.0 mi North 8.1 mph - N/A   Mostly Cloudy
6:56 PM 82.0 °F 85.5 °F 69.1 °F 65% 29.98 in 10.0 mi North 5.8 mph - N/A   Mostly Cloudy
7:56 PM 79.0 °F - 70.0 °F 74% 29.99 in 10.0 mi North 4.6 mph - N/A   Mostly Cloudy
8:56 PM 75.9 °F - 70.0 °F 82% 30.01 in 10.0 mi North 3.5 mph - N/A   Scattered Clouds
9:56 PM 75.9 °F - 69.1 °F 79% 30.02 in 10.0 mi North 5.8 mph - N/A   Partly Cloudy
10:56 PM 73.9 °F - 69.1 °F 85% 30.01 in 10.0 mi NNE 4.6 mph - N/A   Scattered Clouds
11:56 PM 73.0 °F - 69.1 °F 87% 30.02 in 10.0 mi ENE 3.5 mph - N/A   Mostly Cloudy